{"data":{"norad_id":64242,"intl_designator":"2025-119K","name":"STARLINK-11690 [DTC]","alt_names":[],"object_type":"PAYLOAD","status":"ACTIVE","operator":null,"country":"US","launch_date":"2025-06-03","launch_site_code":"AFETR","launch_vehicle":null,"mission":null,"orbit_class":"UNKNOWN","rcs_meters":null,"size_class":null,"mass_kg":null,"dimensions":null,"purposes":["comms"],"wikipedia_slug":null,"has_3d_model":false,"image_url":null,"decayed_at":null,"tle_current":{"epoch":"2026-09-20T22:34:24.895488Z","epoch_age_seconds":99966,"freshness":"FRESH","line1":"1 64242U 25119K   26263.94056592  .00147459  00000+0  11313-2 0  9995","line2":"2 64242  43.0016 112.1128 0002216 261.4118  98.6499 15.70862872 75951","mean_motion":15.70862872,"eccentricity":0.0002216,"inclination_deg":43.0016,"raan_deg":112.1128,"arg_perigee_deg":261.4118,"mean_anomaly_deg":98.6499,"bstar":0.0011313,"rev_number":7595,"period_min":91.669363740618,"perigee_km":354.93730992671,"apogee_km":357.92206988367,"semimajor_km":6734.5666899052,"source":"CELESTRAK","updated_at":"2026-09-21T09:00:35.278085Z"}}}